| time (UTC) | temp F | wind direction | speed MPH | gust MPH | rain 1hr in | rain 24hr in | rain mn in | humidity % | barometer mb |
| 20260902023501 | 61 | 294 | 1.0 | 2.0 | 0.00 | 0.00 | 0.00 | 81 | 1020.5 |
| 20260902023001 | 61 | 279 | 1.0 | 2.0 | 0.00 | 0.00 | 0.00 | 81 | 1020.6 |
| 20260902022501 | 61 | 270 | 1.0 | 2.0 | 0.00 | 0.00 | 0.00 | 81 | 1020.5 |
| 20260902021500 | 61 | 250 | 2.0 | 3.0 | 0.00 | 0.00 | 0.00 | 81 | 1020.3 |
| 20260902021000 | 61 | 271 | 1.0 | 2.0 | 0.00 | 0.00 | 0.00 | 80 | 1020.5 |
| 20260902020514 | 61 | 262 | 1.0 | 2.0 | 0.00 | 0.00 | 0.00 | 80 | 1020.3 |
| 20260902015511 | 61 | 263 | 2.0 | 3.0 | 0.00 | 0.00 | 0.00 | 80 | 1020.5 |
| 20260902014956 | 61 | 253 | 0.0 | 1.0 | 0.00 | 0.00 | 0.00 | 80 | 1020.6 |
| 20260902014511 | 61 | 258 | 0.0 | 1.0 | 0.00 | 0.00 | 0.00 | 80 | 1020.4 |
| 20260902013510 | 61 | 283 | 2.0 | 2.0 | 0.00 | 0.00 | 0.00 | 80 | 1020.6 |
| 20260902013009 | 61 | 292 | 1.0 | 2.0 | 0.00 | 0.00 | 0.00 | 80 | 1020.6 |
| 20260902012509 | 61 | 278 | 0.0 | 1.0 | 0.00 | 0.00 | 0.00 | 80 | 1020.7 |
| 20260902011513 | 61 | 257 | 1.0 | 1.0 | 0.00 | 0.00 | 0.00 | 80 | 1020.9 |
| 20260902010958 | 61 | 257 | 1.0 | 2.0 | 0.00 | 0.00 | 0.00 | 80 | 1021.0 |
| 20260902010458 | 61 | 246 | 1.0 | 2.0 | 0.00 | 0.00 | 0.00 | 80 | 1020.9 |
| 20260902005512 | 61 | 247 | 1.0 | 2.0 | 0.00 | 0.00 | 0.00 | 80 | 1020.9 |
| 20260902004957 | 61 | 239 | 1.0 | 2.0 | 0.00 | 0.00 | 0.00 | 80 | 1021.1 |
| 20260902004511 | 61 | 245 | 1.0 | 2.0 | 0.00 | 0.00 | 0.00 | 80 | 1021.0 |
| 20260902003510 | 61 | 225 | 2.0 | 2.0 | 0.00 | 0.00 | 0.00 | 80 | 1021.0 |
| 20260902003010 | 61 | 225 | 1.0 | 2.0 | 0.00 | 0.00 | 0.00 | 80 | 1021.0 |
| 20260902002509 | 61 | 225 | 0.0 | 1.0 | 0.00 | 0.00 | 0.00 | 80 | 1021.1 |
| 20260902001509 | 61 | 225 | 1.0 | 2.0 | 0.00 | 0.00 | 0.00 | 80 | 1021.0 |
| 20260902001006 | 61 | 225 | 1.0 | 2.0 | 0.00 | 0.00 | 0.00 | 80 | 1021.0 |
| 20260902000506 | 61 | 225 | 1.0 | 2.0 | 0.00 | 0.00 | 0.00 | 80 | 1020.9 |
| 20260901235505 | 61 | 209 | 1.0 | 2.0 | 0.00 | 0.00 | 0.00 | 80 | 1021.1 |
| 20260901235005 | 61 | 191 | 0.0 | 1.0 | 0.00 | 0.00 | 0.00 | 80 | 1021.1 |
| 20260901234503 | 61 | 190 | 0.0 | 1.0 | 0.00 | 0.00 | 0.00 | 80 | 1021.1 |
| 20260901233517 | 61 | 195 | 2.0 | 2.0 | 0.00 | 0.00 | 0.00 | 80 | 1021.3 |
| 20260901233007 | 61 | 188 | 1.0 | 2.0 | 0.00 | 0.00 | 0.00 | 80 | 1021.3 |
| 20260901232507 | 62 | 192 | 2.0 | 2.0 | 0.00 | 0.00 | 0.00 | 80 | 1021.4 |
| 20260901231506 | 61 | 276 | 1.0 | 1.0 | 0.00 | 0.00 | 0.00 | 79 | 1021.1 |
| 20260901231006 | 62 | 243 | 0.0 | 0.0 | 0.00 | 0.00 | 0.00 | 79 | 1021.1 |
| 20260901230506 | 62 | 237 | 0.0 | 1.0 | 0.00 | 0.00 | 0.00 | 79 | 1021.0 |
| 20260901225520 | 62 | 243 | 1.0 | 2.0 | 0.00 | 0.00 | 0.00 | 78 | 1021.3 |
| 20260901225009 | 62 | 235 | 1.0 | 2.0 | 0.00 | 0.00 | 0.00 | 78 | 1021.2 |
| 20260901224509 | 62 | 237 | 1.0 | 2.0 | 0.00 | 0.00 | 0.00 | 78 | 1021.3 |
| 20260901223514 | 62 | 246 | 2.0 | 2.0 | 0.00 | 0.00 | 0.00 | 78 | 1021.3 |
| 20260901222958 | 62 | 225 | 1.0 | 2.0 | 0.00 | 0.00 | 0.00 | 77 | 1021.3 |
| 20260901222513 | 62 | 225 | 1.0 | 2.0 | 0.00 | 0.00 | 0.00 | 77 | 1021.2 |
| 20260901221513 | 63 | 225 | 0.0 | 1.0 | 0.00 | 0.00 | 0.00 | 76 | 1021.2 |
| 20260901221012 | 63 | 225 | 2.0 | 2.0 | 0.00 | 0.00 | 0.00 | 76 | 1021.2 |
| 20260901220512 | 63 | 240 | 1.0 | 2.0 | 0.00 | 0.00 | 0.00 | 75 | 1021.5 |
| 20260901215511 | 63 | 248 | 0.0 | 1.0 | 0.00 | 0.00 | 0.00 | 75 | 1021.3 |
| 20260901215011 | 63 | 250 | 1.0 | 2.0 | 0.00 | 0.00 | 0.00 | 75 | 1021.4 |
| 20260901214510 | 63 | 255 | 0.0 | 1.0 | 0.00 | 0.00 | 0.00 | 75 | 1021.4 |
| 20260901213515 | 63 | 241 | 1.0 | 2.0 | 0.00 | 0.00 | 0.00 | 75 | 1021.2 |
| 20260901213004 | 63 | 236 | 2.0 | 3.0 | 0.00 | 0.00 | 0.00 | 75 | 1021.4 |
| 20260901212504 | 63 | 254 | 1.0 | 2.0 | 0.00 | 0.00 | 0.00 | 74 | 1021.3 |
| 20260901211503 | 63 | 246 | 1.0 | 2.0 | 0.00 | 0.00 | 0.00 | 74 | 1021.3 |
| 20260901211003 | 63 | 247 | 0.0 | 1.0 | 0.00 | 0.00 | 0.00 | 74 | 1021.1 |
| 20260901210503 | 63 | 244 | 1.0 | 2.0 | 0.00 | 0.00 | 0.00 | 74 | 1021.2 |
| 20260901205517 | 63 | 234 | 2.0 | 2.0 | 0.00 | 0.00 | 0.00 | 73 | 1021.4 |
| 20260901205001 | 63 | 228 | 2.0 | 3.0 | 0.00 | 0.00 | 0.00 | 73 | 1021.2 |
| 20260901204516 | 63 | 232 | 2.0 | 4.0 | 0.00 | 0.00 | 0.00 | 73 | 1021.2 |
| 20260901203513 | 63 | 246 | 1.0 | 2.0 | 0.00 | 0.00 | 0.00 | 73 | 1021.1 |
| 20260901203013 | 63 | 239 | 1.0 | 2.0 | 0.00 | 0.00 | 0.00 | 72 | 1021.2 |
| 20260901202503 | 64 | 241 | 2.0 | 2.0 | 0.00 | 0.00 | 0.00 | 70 | 1021.2 |
| 20260901201503 | 64 | 241 | 2.0 | 2.0 | 0.00 | 0.00 | 0.00 | 70 | 1021.0 |
| 20260901201002 | 64 | 256 | 0.0 | 1.0 | 0.00 | 0.00 | 0.00 | 70 | 1021.1 |
| 20260901200517 | 64 | 252 | 2.0 | 3.0 | 0.00 | 0.00 | 0.00 | 70 | 1021.1 |
| 20260901195507 | 64 | 237 | 2.0 | 2.0 | 0.00 | 0.00 | 0.00 | 69 | 1021.0 |
| 20260901195006 | 64 | 242 | 1.0 | 2.0 | 0.00 | 0.00 | 0.00 | 69 | 1021.1 |
| 20260901194506 | 64 | 242 | 1.0 | 2.0 | 0.00 | 0.00 | 0.00 | 69 | 1021.1 |
| 20260901193506 | 64 | 238 | 2.0 | 3.0 | 0.00 | 0.00 | 0.00 | 68 | 1020.8 |
| 20260901193005 | 64 | 225 | 2.0 | 2.0 | 0.00 | 0.00 | 0.00 | 68 | 1020.9 |
| 20260901192505 | 64 | 233 | 2.0 | 3.0 | 0.00 | 0.00 | 0.00 | 67 | 1020.6 |
| 20260901191504 | 65 | 238 | 2.0 | 4.0 | 0.00 | 0.00 | 0.00 | 66 | 1020.6 |
| 20260901191004 | 65 | 241 | 4.0 | 6.0 | 0.00 | 0.00 | 0.00 | 66 | 1020.7 |
| 20260901190503 | 65 | 248 | 2.0 | 2.0 | 0.00 | 0.00 | 0.00 | 65 | 1020.5 |
| 20260901185503 | 65 | 241 | 4.0 | 6.0 | 0.00 | 0.00 | 0.00 | 64 | 1020.5 |
| 20260901185003 | 66 | 250 | 2.0 | 2.0 | 0.00 | 0.00 | 0.00 | 63 | 1020.5 |
| 20260901184502 | 66 | 244 | 3.0 | 4.0 | 0.00 | 0.00 | 0.00 | 63 | 1020.6 |
| 20260901183516 | 67 | 263 | 2.0 | 4.0 | 0.00 | 0.00 | 0.00 | 61 | 1020.6 |
| 20260901183006 | 67 | 251 | 4.0 | 6.0 | 0.00 | 0.00 | 0.00 | 60 | 1020.4 |
| 20260901182506 | 67 | 242 | 4.0 | 5.0 | 0.00 | 0.00 | 0.00 | 59 | 1020.5 |
| 20260901181520 | 68 | 241 | 3.0 | 4.0 | 0.00 | 0.00 | 0.00 | 55 | 1020.5 |
| 20260901181014 | 68 | 248 | 1.0 | 2.0 | 0.00 | 0.00 | 0.00 | 55 | 1020.5 |
| 20260901180507 | 68 | 235 | 2.0 | 3.0 | 0.00 | 0.00 | 0.00 | 54 | 1020.7 |
| 20260901175506 | 69 | 210 | 2.0 | 2.0 | 0.00 | 0.00 | 0.00 | 53 | 1020.8 |
| 20260901175006 | 70 | 211 | 2.0 | 3.0 | 0.00 | 0.00 | 0.00 | 52 | 1020.6 |
| 20260901174521 | 70 | 205 | 2.0 | 5.0 | 0.00 | 0.00 | 0.00 | 52 | 1020.7 |
| 20260901173510 | 71 | 266 | 1.0 | 2.0 | 0.00 | 0.00 | 0.00 | 50 | 1020.5 |
| 20260901173010 | 71 | 264 | 3.0 | 4.0 | 0.00 | 0.00 | 0.00 | 50 | 1020.4 |
| 20260901172509 | 71 | 250 | 2.0 | 3.0 | 0.00 | 0.00 | 0.00 | 50 | 1020.4 |
| 20260901171523 | 71 | 216 | 1.0 | 2.0 | 0.00 | 0.00 | 0.00 | 50 | 1020.6 |
| 20260901170958 | 71 | 217 | 2.0 | 2.0 | 0.00 | 0.00 | 0.00 | 50 | 1020.5 |
| 20260901170513 | 72 | 215 | 2.0 | 4.0 | 0.00 | 0.00 | 0.00 | 47 | 1020.5 |
| 20260901165512 | 76 | 224 | 3.0 | 4.0 | 0.00 | 0.00 | 0.00 | 39 | 1020.5 |
| 20260901165011 | 76 | 238 | 2.0 | 4.0 | 0.00 | 0.00 | 0.00 | 40 | 1020.5 |
| 20260901164511 | 76 | 281 | 4.0 | 8.0 | 0.00 | 0.00 | 0.00 | 40 | 1020.4 |
| 20260901163511 | 76 | 214 | 4.0 | 5.0 | 0.00 | 0.00 | 0.00 | 40 | 1020.5 |
| 20260901163010 | 75 | 251 | 2.0 | 3.0 | 0.00 | 0.00 | 0.00 | 40 | 1020.5 |
| 20260901162500 | 74 | 236 | 2.0 | 3.0 | 0.00 | 0.00 | 0.00 | 40 | 1020.4 |
| 20260901161515 | 74 | 261 | 1.0 | 2.0 | 0.00 | 0.00 | 0.00 | 44 | 1020.6 |
| 20260901161005 | 74 | 280 | 2.0 | 2.0 | 0.00 | 0.00 | 0.00 | 42 | 1020.4 |
| 20260901160504 | 74 | 312 | 3.0 | 4.0 | 0.00 | 0.00 | 0.00 | 42 | 1020.5 |
| 20260901155504 | 73 | 328 | 4.0 | 6.0 | 0.00 | 0.00 | 0.00 | 43 | 1020.6 |
| 20260901155018 | 73 | 335 | 3.0 | 4.0 | 0.00 | 0.00 | 0.00 | 43 | 1020.6 |
| 20260901154508 | 73 | 311 | 2.0 | 4.0 | 0.00 | 0.00 | 0.00 | 45 | 1020.8 |
| 20260901153507 | 72 | 305 | 4.0 | 6.0 | 0.00 | 0.00 | 0.00 | 48 | 1020.7 |
| 20260901153006 | 72 | 293 | 2.0 | 3.0 | 0.00 | 0.00 | 0.00 | 46 | 1020.8 |
| 20260901152506 | 72 | 292 | 2.0 | 2.0 | 0.00 | 0.00 | 0.00 | 43 | 1020.7 |
| 20260901151504 | 73 | 288 | 4.0 | 6.0 | 0.00 | 0.00 | 0.00 | 42 | 1020.9 |
| 20260901151003 | 73 | 280 | 3.0 | 5.0 | 0.00 | 0.00 | 0.00 | 42 | 1020.8 |
| 20260901150502 | 73 | 281 | 6.0 | 8.0 | 0.00 | 0.00 | 0.00 | 41 | 1020.6 |
| 20260901150002 | 73 | 284 | 2.0 | 3.0 | 0.00 | 0.00 | 0.00 | 41 | 1020.9 |
| 20260901145517 | 74 | 283 | 5.0 | 8.0 | 0.00 | 0.00 | 0.00 | 40 | 1020.7 |
| 20260901145001 | 75 | 275 | 2.0 | 4.0 | 0.00 | 0.00 | 0.00 | 41 | 1020.6 |
| 20260901144501 | 74 | 265 | 2.0 | 4.0 | 0.00 | 0.00 | 0.00 | 42 | 1020.5 |
| 20260901144001 | 73 | 257 | 5.0 | 9.0 | 0.00 | 0.00 | 0.00 | 41 | 1020.6 |
| 20260901143515 | 73 | 243 | 4.0 | 4.0 | 0.00 | 0.00 | 0.00 | 42 | 1020.6 |
| 20260901143000 | 73 | 255 | 2.0 | 4.0 | 0.00 | 0.00 | 0.00 | 42 | 1020.8 |
| 20260901142500 | 73 | 258 | 4.0 | 7.0 | 0.00 | 0.00 | 0.00 | 41 | 1020.7 |
| 20260901141959 | 73 | 261 | 2.0 | 3.0 | 0.00 | 0.00 | 0.00 | 42 | 1020.6 |
| 20260901141514 | 73 | 255 | 2.0 | 3.0 | 0.00 | 0.00 | 0.00 | 42 | 1020.8 |
| 20260901140958 | 73 | 246 | 6.0 | 8.0 | 0.00 | 0.00 | 0.00 | 41 | 1020.9 |
| 20260901140458 | 73 | 271 | 4.0 | 5.0 | 0.00 | 0.00 | 0.00 | 41 | 1021.0 |
| 20260901135958 | 73 | 274 | 4.0 | 7.0 | 0.00 | 0.00 | 0.00 | 41 | 1020.9 |
| 20260901135512 | 74 | 297 | 6.0 | 9.0 | 0.00 | 0.00 | 0.00 | 41 | 1021.2 |
| 20260901135012 | 71 | 236 | 3.0 | 4.0 | 0.00 | 0.00 | 0.00 | 48 | 1020.9 |
| 20260901134517 | 71 | 331 | 3.0 | 4.0 | 0.00 | 0.00 | 0.00 | 48 | 1020.9 |
| 20260901134011 | 71 | 276 | 4.0 | 7.0 | 0.00 | 0.00 | 0.00 | 47 | 1021.0 |
| 20260901133516 | 71 | 226 | 2.0 | 2.0 | 0.00 | 0.00 | 0.00 | 48 | 1021.0 |
| 20260901133000 | 71 | 213 | 4.0 | 6.0 | 0.00 | 0.00 | 0.00 | 48 | 1020.9 |
| 20260901132500 | 72 | 221 | 2.0 | 4.0 | 0.00 | 0.00 | 0.00 | 48 | 1020.9 |
| 20260901131959 | 72 | 245 | 2.0 | 4.0 | 0.00 | 0.00 | 0.00 | 47 | 1021.0 |
| 20260901131514 | 72 | 217 | 4.0 | 7.0 | 0.00 | 0.00 | 0.00 | 43 | 1021.0 |
| 20260901130958 | 72 | 221 | 1.0 | 2.0 | 0.00 | 0.00 | 0.00 | 43 | 1021.0 |
| 20260901130458 | 73 | 235 | 2.0 | 2.0 | 0.00 | 0.00 | 0.00 | 43 | 1021.0 |
| 20260901130013 | 73 | 213 | 4.0 | 4.0 | 0.00 | 0.00 | 0.00 | 43 | 1021.1 |
| 20260901125503 | 73 | 226 | 2.0 | 3.0 | 0.00 | 0.00 | 0.00 | 44 | 1021.0 |
| 20260901125002 | 73 | 228 | 4.0 | 5.0 | 0.00 | 0.00 | 0.00 | 44 | 1021.1 |
| 20260901124502 | 73 | 282 | 3.0 | 5.0 | 0.00 | 0.00 | 0.00 | 43 | 1021.1 |
| 20260901124001 | 73 | 246 | 4.0 | 5.0 | 0.00 | 0.00 | 0.00 | 43 | 1021.1 |
| 20260901123516 | 73 | 203 | 2.0 | 4.0 | 0.00 | 0.00 | 0.00 | 45 | 1021.2 |
| 20260901123000 | 74 | 221 | 3.0 | 4.0 | 0.00 | 0.00 | 0.00 | 43 | 1021.2 |
| 20260901122500 | 75 | 211 | 5.0 | 7.0 | 0.00 | 0.00 | 0.00 | 42 | 1021.1 |
| 20260901122000 | 75 | 243 | 4.0 | 4.0 | 0.00 | 0.00 | 0.00 | 42 | 1021.3 |
| 20260901121514 | 73 | 248 | 4.0 | 5.0 | 0.00 | 0.00 | 0.00 | 45 | 1021.1 |
| 20260901120958 | 72 | 226 | 3.0 | 4.0 | 0.00 | 0.00 | 0.00 | 51 | 1021.4 |
| 20260901120458 | 71 | 190 | 3.0 | 4.0 | 0.00 | 0.00 | 0.00 | 51 | 1021.3 |
| 20260901120012 | 72 | 168 | 2.0 | 3.0 | 0.00 | 0.00 | 0.00 | 50 | 1021.4 |
| 20260901115512 | 73 | 165 | 4.0 | 4.0 | 0.00 | 0.00 | 0.00 | 46 | 1021.2 |
| 20260901115012 | 72 | 194 | 3.0 | 6.0 | 0.00 | 0.00 | 0.00 | 51 | 1021.2 |
| 20260901114502 | 72 | 222 | 2.0 | 3.0 | 0.00 | 0.00 | 0.00 | 44 | 1021.3 |
| 20260901113959 | 74 | 210 | 2.0 | 2.0 | 0.00 | 0.00 | 0.00 | 43 | 1021.2 |
| 20260901113514 | 75 | 208 | 3.0 | 4.0 | 0.00 | 0.00 | 0.00 | 44 | 1021.2 |
| 20260901113014 | 74 | 244 | 4.0 | 5.0 | 0.00 | 0.00 | 0.00 | 45 | 1021.1 |
| 20260901112504 | 73 | 280 | 2.0 | 4.0 | 0.00 | 0.00 | 0.00 | 46 | 1021.2 |
| 20260901112003 | 72 | 264 | 3.0 | 4.0 | 0.00 | 0.00 | 0.00 | 51 | 1021.3 |
| 20260901111503 | 72 | 284 | 2.0 | 3.0 | 0.00 | 0.00 | 0.00 | 52 | 1021.2 |
| 20260901111003 | 72 | 267 | 2.0 | 3.0 | 0.00 | 0.00 | 0.00 | 50 | 1021.2 |
| 20260901110502 | 72 | 274 | 6.0 | 8.0 | 0.00 | 0.00 | 0.00 | 45 | 1021.3 |
| 20260901110002 | 72 | 236 | 2.0 | 3.0 | 0.00 | 0.00 | 0.00 | 50 | 1021.4 |
| 20260901105516 | 71 | 223 | 4.0 | 4.0 | 0.00 | 0.00 | 0.00 | 52 | 1021.4 |
| 20260901105001 | 72 | 203 | 3.0 | 4.0 | 0.00 | 0.00 | 0.00 | 49 | 1021.2 |
| 20260901104500 | 72 | 214 | 3.0 | 4.0 | 0.00 | 0.00 | 0.00 | 51 | 1021.4 |
| 20260901104000 | 71 | 223 | 3.0 | 5.0 | 0.00 | 0.00 | 0.00 | 53 | 1021.4 |
| 20260901103515 | 72 | 215 | 3.0 | 4.0 | 0.00 | 0.00 | 0.00 | 54 | 1021.5 |
| 20260901103029 | 72 | 206 | 2.0 | 3.0 | 0.00 | 0.00 | 0.00 | 53 | 1021.5 |
| 20260901102509 | 71 | 211 | 2.0 | 4.0 | 0.00 | 0.00 | 0.00 | 52 | 1021.5 |
| 20260901102008 | 71 | 204 | 3.0 | 4.0 | 0.00 | 0.00 | 0.00 | 53 | 1021.4 |
| 20260901101508 | 70 | 200 | 3.0 | 4.0 | 0.00 | 0.00 | 0.00 | 54 | 1021.7 |
| 20260901101007 | 70 | 189 | 6.0 | 8.0 | 0.00 | 0.00 | 0.00 | 54 | 1021.5 |
| 20260901100505 | 70 | 198 | 4.0 | 5.0 | 0.00 | 0.00 | 0.00 | 54 | 1021.7 |
| 20260901100004 | 70 | 216 | 2.0 | 4.0 | 0.00 | 0.00 | 0.00 | 53 | 1021.6 |
| 20260901095504 | 72 | 227 | 4.0 | 7.0 | 0.00 | 0.00 | 0.00 | 51 | 1021.7 |
| 20260901095004 | 72 | 248 | 2.0 | 3.0 | 0.00 | 0.00 | 0.00 | 52 | 1021.7 |
| 20260901094503 | 72 | 248 | 4.0 | 5.0 | 0.00 | 0.00 | 0.00 | 53 | 1021.8 |
| 20260901094017 | 71 | 242 | 2.0 | 4.0 | 0.00 | 0.00 | 0.00 | 54 | 1021.8 |
| 20260901093506 | 69 | 250 | 3.0 | 4.0 | 0.00 | 0.00 | 0.00 | 56 | 1021.7 |
| 20260901093006 | 69 | 250 | 3.0 | 4.0 | 0.00 | 0.00 | 0.00 | 55 | 1021.6 |
| 20260901092506 | 69 | 270 | 3.0 | 4.0 | 0.00 | 0.00 | 0.00 | 55 | 1021.7 |
| 20260901092005 | 69 | 303 | 4.0 | 4.0 | 0.00 | 0.00 | 0.00 | 55 | 1021.9 |
| 20260901091505 | 69 | 276 | 3.0 | 4.0 | 0.00 | 0.00 | 0.00 | 55 | 1021.7 |
| 20260901091005 | 69 | 234 | 1.0 | 2.0 | 0.00 | 0.00 | 0.00 | 57 | 1021.6 |
| 20260901090505 | 69 | 236 | 2.0 | 2.0 | 0.00 | 0.00 | 0.00 | 57 | 1021.8 |
| 20260901090004 | 69 | 241 | 4.0 | 5.0 | 0.00 | 0.00 | 0.00 | 57 | 1021.7 |
| 20260901085504 | 68 | 254 | 3.0 | 6.0 | 0.00 | 0.00 | 0.00 | 59 | 1021.9 |
| 20260901085018 | 68 | 271 | 2.0 | 4.0 | 0.00 | 0.00 | 0.00 | 59 | 1021.8 |
| 20260901084508 | 69 | 286 | 2.0 | 2.0 | 0.00 | 0.00 | 0.00 | 57 | 1021.7 |
| 20260901084008 | 69 | 290 | 2.0 | 3.0 | 0.00 | 0.00 | 0.00 | 59 | 1021.6 |
| 20260901083523 | 69 | 278 | 2.0 | 2.0 | 0.00 | 0.00 | 0.00 | 59 | 1021.6 |
| 20260901083012 | 69 | 279 | 2.0 | 4.0 | 0.00 | 0.00 | 0.00 | 60 | 1021.6 |
| 20260901082512 | 67 | 275 | 2.0 | 3.0 | 0.00 | 0.00 | 0.00 | 62 | 1021.6 |
| 20260901082011 | 67 | 279 | 2.0 | 4.0 | 0.00 | 0.00 | 0.00 | 62 | 1021.5 |
| 20260901081511 | 67 | 254 | 1.0 | 2.0 | 0.00 | 0.00 | 0.00 | 62 | 1021.5 |
| 20260901081007 | 67 | 250 | 1.0 | 2.0 | 0.00 | 0.00 | 0.00 | 63 | 1021.8 |
| 20260901080506 | 67 | 248 | 2.0 | 2.0 | 0.00 | 0.00 | 0.00 | 62 | 1021.5 |
| 20260901080006 | 67 | 237 | 3.0 | 4.0 | 0.00 | 0.00 | 0.00 | 62 | 1021.6 |
| 20260901075521 | 66 | 270 | 1.0 | 2.0 | 0.00 | 0.00 | 0.00 | 65 | 1021.4 |
| 20260901075010 | 64 | 270 | 1.0 | 2.0 | 0.00 | 0.00 | 0.00 | 69 | 1021.3 |
| 20260901074510 | 63 | 270 | 0.0 | 1.0 | 0.00 | 0.00 | 0.00 | 71 | 1021.2 |
| 20260901073959 | 64 | 270 | 1.0 | 2.0 | 0.00 | 0.00 | 0.00 | 70 | 1021.3 |
| 20260901073514 | 63 | 270 | 0.0 | 1.0 | 0.00 | 0.00 | 0.00 | 77 | 1021.4 |
| 20260901072959 | 60 | 270 | 1.0 | 2.0 | 0.00 | 0.00 | 0.00 | 81 | 1021.4 |
| 20260901072458 | 58 | 270 | 0.0 | 1.0 | 0.00 | 0.00 | 0.00 | 80 | 1021.3 |
| 20260901071958 | 58 | 270 | 0.0 | 1.0 | 0.00 | 0.00 | 0.00 | 82 | 1021.5 |
| 20260901071513 | 57 | 270 | 0.0 | 1.0 | 0.00 | 0.00 | 0.00 | 82 | 1021.3 |
| 20260901071012 | 57 | 270 | 1.0 | 2.0 | 0.00 | 0.00 | 0.00 | 85 | 1021.2 |
| 20260901070511 | 57 | 180 | 0.0 | 0.0 | 0.00 | 0.00 | 0.00 | 87 | 1021.2 |
| 20260901070011 | 56 | 180 | 0.0 | 0.0 | 0.00 | 0.00 | 0.00 | 89 | 1021.2 |
| 20260901065511 | 56 | 180 | 0.0 | 0.0 | 0.00 | 0.00 | 0.00 | 91 | 1021.2 |
| 20260901065010 | 55 | 180 | 0.0 | 0.0 | 0.00 | 0.00 | 0.00 | 92 | 1021.2 |
| 20260901064510 | 54 | 180 | 0.0 | 0.0 | 0.00 | 0.00 | 0.00 | 93 | 1021.3 |
| 20260901064010 | 54 | 180 | 0.0 | 0.0 | 0.00 | 0.00 | 0.00 | 96 | 1021.2 |
| 20260901063509 | 54 | 180 | 0.0 | 0.0 | 0.00 | 0.00 | 0.00 | 97 | 1021.3 |
| 20260901063008 | 53 | 180 | 0.0 | 0.0 | 0.00 | 0.00 | 0.00 | 97 | 1021.3 |
| 20260901062458 | 53 | 180 | 0.0 | 0.0 | 0.00 | 0.00 | 0.00 | 97 | 1021.2 |
| 20260901062013 | 53 | 180 | 0.0 | 0.0 | 0.00 | 0.00 | 0.00 | 97 | 1021.4 |
| 20260901061515 | 52 | 180 | 0.0 | 0.0 | 0.00 | 0.00 | 0.00 | 96 | 1021.5 |
| 20260901061014 | 52 | 180 | 0.0 | 0.0 | 0.00 | 0.00 | 0.00 | 96 | 1021.2 |
| 20260901060504 | 52 | 180 | 0.0 | 0.0 | 0.00 | 0.00 | 0.00 | 96 | 1021.2 |
| 20260901060003 | 51 | 180 | 0.0 | 0.0 | 0.00 | 0.00 | 0.00 | 95 | 1021.2 |
| 20260901055517 | 51 | 180 | 0.0 | 0.0 | 0.00 | 0.00 | 0.00 | 95 | 1021.2 |
| 20260901055002 | 51 | 180 | 0.0 | 0.0 | 0.00 | 0.00 | 0.00 | 95 | 1020.9 |
| 20260901054501 | 51 | 180 | 0.0 | 0.0 | 0.00 | 0.00 | 0.00 | 94 | 1021.1 |
| 20260901054001 | 51 | 180 | 0.0 | 0.0 | 0.00 | 0.00 | 0.00 | 94 | 1021.0 |
| 20260901053515 | 51 | 180 | 0.0 | 0.0 | 0.00 | 0.00 | 0.00 | 94 | 1021.1 |
| 20260901053005 | 51 | 180 | 0.0 | 0.0 | 0.00 | 0.00 | 0.00 | 94 | 1021.3 |
| 20260901052519 | 51 | 180 | 0.0 | 0.0 | 0.00 | 0.00 | 0.00 | 94 | 1021.2 |
| 20260901052009 | 51 | 180 | 0.0 | 0.0 | 0.00 | 0.00 | 0.00 | 94 | 1020.9 |
| 20260901051506 | 51 | 180 | 0.0 | 0.0 | 0.00 | 0.00 | 0.00 | 94 | 1021.0 |
| 20260901051006 | 51 | 180 | 0.0 | 0.0 | 0.00 | 0.00 | 0.00 | 94 | 1021.0 |
| 20260901050505 | 51 | 180 | 0.0 | 0.0 | 0.00 | 0.00 | 0.00 | 94 | 1021.1 |
| 20260901050005 | 51 | 180 | 0.0 | 0.0 | 0.00 | 0.00 | 0.00 | 94 | 1021.1 |
| 20260901045520 | 51 | 180 | 0.0 | 0.0 | 0.00 | 0.00 | 0.00 | 94 | 1021.0 |
| 20260901045010 | 51 | 180 | 0.0 | 0.0 | 0.00 | 0.00 | 0.00 | 94 | 1020.9 |
| 20260901044459 | 51 | 180 | 0.0 | 0.0 | 0.00 | 0.00 | 0.00 | 94 | 1021.0 |
| 20260901043959 | 51 | 180 | 0.0 | 0.0 | 0.00 | 0.00 | 0.00 | 94 | 1020.7 |
| 20260901043513 | 51 | 180 | 0.0 | 0.0 | 0.00 | 0.00 | 0.00 | 94 | 1021.0 |
| 20260901043013 | 52 | 180 | 0.0 | 0.0 | 0.00 | 0.00 | 0.00 | 94 | 1020.9 |
| 20260901042502 | 52 | 180 | 0.0 | 0.0 | 0.00 | 0.00 | 0.00 | 93 | 1020.9 |
| 20260901042001 | 52 | 180 | 0.0 | 0.0 | 0.00 | 0.00 | 0.00 | 93 | 1020.7 |
| 20260901041516 | 52 | 180 | 0.0 | 0.0 | 0.00 | 0.00 | 0.00 | 93 | 1020.6 |
| 20260901041001 | 52 | 180 | 0.0 | 0.0 | 0.00 | 0.00 | 0.00 | 93 | 1020.7 |
| 20260901040500 | 52 | 180 | 0.0 | 0.0 | 0.00 | 0.00 | 0.00 | 93 | 1020.7 |
| 20260901040000 | 52 | 180 | 0.0 | 0.0 | 0.00 | 0.00 | 0.00 | 93 | 1020.6 |
| 20260901035515 | 52 | 180 | 0.0 | 0.0 | 0.00 | 0.00 | 0.00 | 92 | 1020.7 |
| 20260901034959 | 52 | 180 | 0.0 | 0.0 | 0.00 | 0.00 | 0.00 | 92 | 1020.7 |
| 20260901034459 | 52 | 180 | 0.0 | 0.0 | 0.00 | 0.00 | 0.00 | 92 | 1020.7 |
| 20260901033959 | 52 | 180 | 0.0 | 0.0 | 0.00 | 0.00 | 0.00 | 92 | 1020.8 |
| 20260901033513 | 52 | 180 | 0.0 | 0.0 | 0.00 | 0.00 | 0.00 | 92 | 1020.6 |
| 20260901033013 | 52 | 180 | 0.0 | 0.0 | 0.00 | 0.00 | 0.00 | 92 | 1020.7 |
| 20260901032507 | 52 | 180 | 0.0 | 0.0 | 0.00 | 0.00 | 0.00 | 91 | 1020.6 |
| 20260901032006 | 52 | 180 | 0.0 | 0.0 | 0.00 | 0.00 | 0.00 | 91 | 1020.4 |
| 20260901031518 | 52 | 180 | 0.0 | 0.0 | 0.00 | 0.00 | 0.00 | 91 | 1020.5 |
| 20260901031003 | 52 | 180 | 0.0 | 0.0 | 0.00 | 0.00 | 0.00 | 91 | 1020.5 |
| 20260901030517 | 53 | 180 | 0.0 | 0.0 | 0.00 | 0.00 | 0.00 | 90 | 1020.6 |
| 20260901030007 | 53 | 180 | 0.0 | 0.0 | 0.00 | 0.00 | 0.00 | 90 | 1020.7 |
| 20260901025507 | 53 | 180 | 0.0 | 0.0 | 0.00 | 0.00 | 0.00 | 90 | 1020.4 |
| 20260901025006 | 53 | 180 | 0.0 | 0.0 | 0.00 | 0.00 | 0.00 | 90 | 1020.6 |
| 20260901024505 | 53 | 180 | 0.0 | 0.0 | 0.00 | 0.00 | 0.00 | 90 | 1020.6 |